QPF
0.01 0.01 0.00 0.00 0.00 0.00 0.00 0.00 0.00 0.00 0.00 0.00 0.00 0.00 0.00 0.00 0.00 0.00 0.00 0.00 0.00 0.00 0.00 0.00 0.00 0.00 0.00 0.00 0.00 0.01 0.01 0.01 0.01 0.01 0.00 0.00 0.00 0.00 0.00 0.00 0.00 0.00 0.00
0.00 0.01 0.01 0.01 0.01 0.00 0.00 0.00 0.00 0.00 0.00 0.00 0.00 0.00 0.00 0.00 0.00 0.00 0.00 0.00 0.00 0.00 0.00 0.00 0.00 0.00 0.00 0.00 0.00 0.01 0.01 0.01 0.01 0.01 0.01 0.01 0.00 0.00 0.00 0.00 0.00 0.00 0.00
0.00 0.00 0.00 0.00 0.00 0.00 0.00 0.00 0.00 0.00 0.00 0.00 0.00 0.00 0.00 0.00 0.00 0.00 0.00 0.00 0.00 0.00 0.00 0.00 0.00 0.00 0.00 0.00 0.00 0.01 0.01 0.01 0.01 0.02 0.02 0.02 0.01 0.01 0.00 0.00 0.00 0.00 0.00
0.00 0.00 0.00 0.00 0.00 0.00 0.00 0.00 0.00 0.00 0.00 0.00 0.00 0.00 0.00 0.00 0.00 0.00 0.00 0.00 0.00 0.00 0.00 0.01 0.00 0.01 0.01 0.00 0.00 0.00 0.00 0.01 0.01 0.02 0.02 0.02 0.02 0.02 0.01 0.01 0.01 0.00 0.00
0.00 0.00 0.00 0.00 0.00 0.00 0.00 0.00 0.00 0.00 0.00 0.00 0.00 0.00 0.00 0.00 0.01 0.00 0.01 0.01 0.01 0.01 0.01 0.01 0.01 0.01 0.01 0.00 0.00 0.00 0.00 0.00 0.01 0.01 0.02 0.03 0.03 0.03 0.03 0.02 0.02 0.01 0.01
0.00 0.00 0.00 0.00 0.00 0.00 0.00 0.00 0.00 0.00 0.00 0.00 0.00 0.00 0.01 0.01 0.01 0.01 0.01 0.01 0.00 0.00 0.00 0.00 0.00 0.00 0.00 0.00 0.00 0.00 0.00 0.00 0.01 0.01 0.01 0.02 0.04 0.04 0.04 0.03 0.03 0.02 0.02
0.00 0.00 0.00 0.00 0.00 0.00 0.00 0.00 0.00 0.00 0.00 0.00 0.01 0.01 0.01 0.01 0.01 0.00 0.00 0.00 0.00 0.00 0.00 0.00 0.00 0.00 0.00 0.00 0.00 0.00 0.00 0.00 0.00 0.01 0.01 0.02 0.04 0.05 0.05 0.05 0.05 0.04 0.03
0.00 0.00 0.00 0.00 0.00 0.00 0.00 0.00 0.00 0.00 0.00 0.00 0.00 0.00 0.00 0.00 0.00 0.00 0.00 0.00 0.00 0.00 0.00 0.00 0.00 0.00 0.00 0.00 0.00 0.00 0.00 0.00 0.00 0.00 0.01 0.02 0.03 0.04 0.06 0.07 0.07 0.07 0.07
0.00 0.00 0.00 0.00 0.00 0.00 0.00 0.00 0.00 0.00 0.00 0.00 0.00 0.00 0.00 0.00 0.00 0.00 0.00 0.00 0.00 0.00 0.00 0.00 0.00 0.00 0.00 0.00 0.00 0.00 0.00 0.00 0.00 0.00 0.01 0.01 0.02 0.03 0.05 0.07 0.08 0.10 0.10
0.00 0.00 0.00 0.00 0.00 0.00 0.00 0.00 0.00 0.00 0.00 0.00 0.00 0.00 0.00 0.00 0.01 0.01 0.00 0.00 0.00 0.00 0.00 0.00 0.00 0.00 0.00 0.00 0.00 0.00 0.00 0.00 0.00 0.00 0.01 0.01 0.01 0.02 0.03 0.05 0.07 0.09 0.11
0.00 0.00 0.00 0.00 0.00 0.00 0.00 0.00 0.00 0.00 0.00 0.00 0.00 0.00 0.00 0.00 0.01 0.01 0.01 0.00 0.00 0.00 0.00 0.00 0.00 0.00 0.00 0.00 0.00 0.00 0.00 0.00 0.01 0.01 0.01 0.01 0.01 0.02 0.03 0.04 0.06 0.09 0.11
0.00 0.00 0.00 0.00 0.00 0.00 0.00 0.00 0.00 0.00 0.00 0.00 0.00 0.00 0.00 0.00 0.00 0.01 0.01 0.00 0.00 0.00 0.00 0.00 0.00 0.00 0.00 0.00 0.00 0.00 0.00 0.01 0.01 0.01 0.01 0.01 0.01 0.02 0.02 0.03 0.05 0.08 0.11
0.00 0.00 0.00 0.00 0.00 0.00 0.00 0.00 0.00 0.00 0.00 0.00 0.00 0.00 0.00 0.00 0.00 0.00 0.00 0.00 0.00 0.00 0.00 0.00 0.00 0.00 0.00 0.00 0.01 0.00 0.00 0.00 0.00 0.00 0.00 0.01 0.01 0.01 0.02 0.02 0.04 0.06 0.10
0.00 0.00 0.00 0.00 0.00 0.00 0.00 0.00 0.00 0.00 0.00 0.00 0.00 0.00 0.00 0.00 0.00 0.00 0.00 0.00 0.00 0.00 0.00 0.00 0.00 0.00 0.00 0.00 0.00 0.00 0.01 0.00 0.00 0.00 0.00 0.00 0.01 0.01 0.01 0.02 0.03 0.04 0.06
0.00 0.00 0.00 0.00 0.00 0.00 0.00 0.00 0.00 0.00 0.00 0.00 0.00 0.00 0.00 0.00 0.00 0.00 0.00 0.00 0.01 0.01 0.00 0.00 0.00 0.00 0.00 0.00 0.01 0.01 0.02 0.02 0.01 0.00 0.00 0.00 0.00 0.01 0.01 0.01 0.01 0.02 0.02
0.00 0.00 0.00 0.00 0.00 0.00 0.00 0.00 0.00 0.00 0.01 0.01 0.01 0.01 0.01 0.00 0.00 0.00 0.00 0.00 0.01 0.02 0.02 0.01 0.00 0.00 0.01 0.01 0.01 0.02 0.02 0.01 0.00 0.00 0.00 0.00 0.01 0.01 0.01 0.02 0.02 0.01 0.01
0.00 0.00 0.00 0.00 0.00 0.00 0.00 0.00 0.00 0.01 0.01 0.01 0.01 0.01 0.01 0.01 0.01 0.00 0.00 0.00 0.01 0.02 0.03 0.02 0.01 0.01 0.02 0.02 0.02 0.02 0.02 0.01 0.01 0.01 0.01 0.01 0.01 0.01 0.02 0.02 0.02 0.02 0.02
0.00 0.00 0.00 0.00 0.00 0.00 0.00 0.00 0.01 0.01 0.01 0.01 0.01 0.01 0.01 0.01 0.01 0.00 0.00 0.00 0.01 0.02 0.04 0.04 0.03 0.02 0.03 0.02 0.02 0.02 0.01 0.01 0.01 0.01 0.01 0.01 0.01 0.02 0.02 0.02 0.01 0.01 0.01
0.00 0.00 0.00 0.00 0.00 0.00 0.00 0.01 0.01 0.01 0.01 0.01 0.01 0.01 0.01 0.01 0.00 0.00 0.01 0.01 0.01 0.02 0.05 0.06 0.04 0.03 0.02 0.01 0.02 0.02 0.02 0.03 0.02 0.01 0.01 0.01 0.02 0.02 0.02 0.02 0.01 0.01 0.00
0.00 0.00 0.00 0.00 0.01 0.01 0.01 0.01 0.01 0.01 0.01 0.01 0.00 0.00 0.00 0.00 0.01 0.01 0.01 0.01 0.03 0.05 0.05 0.06 0.04 0.03 0.02 0.01 0.02 0.02 0.03 0.03 0.03 0.02 0.02 0.02 0.02 0.02 0.02 0.01 0.01 0.01 0.00
0.00 0.00 0.00 0.01 0.01 0.01 0.00 0.00 0.00 0.00 0.00 0.00 0.00 0.00 0.00 0.00 0.01 0.02 0.02 0.03 0.05 0.06 0.06 0.06 0.04 0.03 0.02 0.01 0.02 0.04 0.05 0.04 0.03 0.02 0.02 0.02 0.02 0.01 0.01 0.01 0.00 0.00 0.00
0.00 0.00 0.00 0.00 0.00 0.00 0.00 0.00 0.00 0.00 0.00 0.00 0.00 0.00 0.00 0.00 0.01 0.01 0.02 0.03 0.04 0.06 0.06 0.06 0.05 0.03 0.02 0.02 0.04 0.06 0.07 0.06 0.04 0.03 0.02 0.02 0.01 0.01 0.01 0.01 0.01 0.01 0.01
0.00 0.00 0.00 0.00 0.00 0.00 0.00 0.00 0.00 0.00 0.00 0.00 0.01 0.01 0.00 0.00 0.01 0.01 0.02 0.02 0.02 0.02 0.03 0.05 0.05 0.03 0.03 0.04 0.08 0.09 0.08 0.07 0.06 0.04 0.03 0.02 0.01 0.01 0.02 0.02 0.03 0.02 0.02
0.00 0.00 0.00 0.00 0.00 0.00 0.00 0.00 0.00 0.00 0.01 0.01 0.01 0.01 0.01 0.01 0.01 0.02 0.02 0.02 0.01 0.01 0.03 0.05 0.06 0.07 0.09 0.09 0.10 0.10 0.08 0.07 0.05 0.03 0.02 0.02 0.02 0.03 0.03 0.04 0.06 0.05 0.04
0.00 0.00 0.00 0.00 0.00 0.00 0.00 0.00 0.00 0.01 0.01 0.00 0.01 0.01 0.01 0.02 0.02 0.02 0.02 0.02 0.02 0.02 0.05 0.10 0.13 0.15 0.16 0.13 0.10 0.08 0.06 0.06 0.05 0.03 0.02 0.02 0.03 0.04 0.05 0.07 0.07 0.09 0.09
0.00 0.00 0.00 0.00 0.00 0.01 0.00 0.00 0.00 0.01 0.01 0.01 0.01 0.01 0.01 0.02 0.02 0.02 0.03 0.03 0.03 0.03 0.07 0.12 0.18 0.19 0.15 0.10 0.08 0.06 0.06 0.07 0.06 0.04 0.02 0.03 0.04 0.06 0.08 0.10 0.10 0.13 0.14
MSLP
1016.31 1016.37 1016.42 1016.46 1016.53 1016.62 1016.74 1016.87 1016.99 1017.08 1017.11 1017.09 1017.01 1016.93 1016.86 1016.84 1016.91 1017.06 1017.30 1017.57 1017.85 1018.09 1018.25 1018.31 1018.29 1018.20 1018.07 1017.95 1017.87 1017.84 1017.86 1017.93 1018.02 1018.11 1018.17 1018.20 1018.19 1018.18 1018.16 1018.17 1018.22 1018.31 1018.45
1016.51 1016.56 1016.58 1016.61 1016.66 1016.74 1016.86 1016.99 1017.12 1017.22 1017.28 1017.27 1017.22 1017.13 1017.05 1017.01 1017.03 1017.13 1017.30 1017.51 1017.74 1017.94 1018.09 1018.16 1018.14 1018.07 1017.95 1017.83 1017.74 1017.68 1017.67 1017.70 1017.76 1017.82 1017.86 1017.88 1017.88 1017.86 1017.85 1017.86 1017.90 1017.98 1018.11
1016.94 1016.97 1016.99 1017.00 1017.04 1017.10 1017.20 1017.32 1017.44 1017.53 1017.58 1017.57 1017.51 1017.41 1017.29 1017.20 1017.15 1017.17 1017.26 1017.41 1017.58 1017.74 1017.87 1017.94 1017.94 1017.88 1017.78 1017.65 1017.54 1017.45 1017.40 1017.38 1017.39 1017.41 1017.43 1017.44 1017.43 1017.41 1017.40 1017.42 1017.46 1017.54 1017.67
1017.51 1017.55 1017.56 1017.56 1017.58 1017.62 1017.69 1017.78 1017.86 1017.93 1017.94 1017.90 1017.81 1017.67 1017.50 1017.35 1017.23 1017.18 1017.18 1017.26 1017.37 1017.49 1017.60 1017.66 1017.67 1017.62 1017.52 1017.39 1017.26 1017.13 1017.03 1016.96 1016.92 1016.90 1016.89 1016.87 1016.86 1016.84 1016.84 1016.85 1016.90 1016.99 1017.13
1018.12 1018.17 1018.18 1018.18 1018.18 1018.20 1018.23 1018.27 1018.31 1018.32 1018.29 1018.20 1018.06 1017.87 1017.66 1017.45 1017.26 1017.13 1017.07 1017.07 1017.12 1017.20 1017.28 1017.33 1017.34 1017.29 1017.19 1017.06 1016.90 1016.74 1016.60 1016.49 1016.40 1016.34 1016.29 1016.26 1016.23 1016.21 1016.20 1016.21 1016.26 1016.35 1016.49
1018.66 1018.72 1018.75 1018.76 1018.75 1018.75 1018.74 1018.73 1018.71 1018.66 1018.57 1018.43 1018.24 1018.01 1017.75 1017.49 1017.25 1017.06 1016.94 1016.87 1016.86 1016.89 1016.93 1016.95 1016.94 1016.89 1016.79 1016.65 1016.49 1016.31 1016.15 1016.01 1015.89 1015.80 1015.73 1015.67 1015.63 1015.59 1015.57 1015.57 1015.61 1015.69 1015.81
1019.07 1019.15 1019.20 1019.22 1019.22 1019.20 1019.17 1019.11 1019.03 1018.93 1018.78 1018.59 1018.36 1018.10 1017.81 1017.52 1017.25 1017.02 1016.83 1016.70 1016.63 1016.59 1016.57 1016.55 1016.52 1016.45 1016.34 1016.20 1016.04 1015.87 1015.71 1015.57 1015.45 1015.35 1015.27 1015.20 1015.13 1015.07 1015.02 1014.99 1014.99 1015.03 1015.13
1019.31 1019.42 1019.50 1019.55 1019.57 1019.55 1019.50 1019.42 1019.30 1019.15 1018.96 1018.74 1018.48 1018.20 1017.90 1017.60 1017.30 1017.03 1016.80 1016.61 1016.46 1016.34 1016.24 1016.16 1016.07 1015.97 1015.86 1015.72 1015.59 1015.45 1015.32 1015.21 1015.12 1015.03 1014.96 1014.87 1014.78 1014.69 1014.59 1014.50 1014.45 1014.43 1014.48
1019.44 1019.58 1019.70 1019.78 1019.82 1019.82 1019.77 1019.67 1019.54 1019.36 1019.15 1018.91 1018.65 1018.37 1018.07 1017.76 1017.46 1017.16 1016.87 1016.60 1016.37 1016.15 1015.96 1015.79 1015.63 1015.49 1015.35 1015.23 1015.13 1015.04 1014.97 1014.92 1014.87 1014.82 1014.76 1014.67 1014.56 1014.43 1014.27 1014.11 1013.98 1013.89 1013.86
1019.50 1019.67 1019.82 1019.94 1020.02 1020.04 1020.00 1019.91 1019.77 1019.58 1019.36 1019.13 1018.87 1018.60 1018.32 1018.02 1017.71 1017.38 1017.04 1016.70 1016.36 1016.03 1015.73 1015.45 1015.21 1015.00 1014.84 1014.73 1014.66 1014.62 1014.62 1014.63 1014.65 1014.64 1014.61 1014.53 1014.39 1014.21 1014.00 1013.77 1013.55 1013.37 1013.26
1019.57 1019.76 1019.93 1020.07 1020.18 1020.22 1020.20 1020.12 1019.98 1019.80 1019.59 1019.36 1019.13 1018.88 1018.61 1018.33 1018.01 1017.66 1017.27 1016.85 1016.41 1015.96 1015.54 1015.14 1014.80 1014.53 1014.33 1014.20 1014.15 1014.16 1014.22 1014.29 1014.36 1014.40 1014.39 1014.32 1014.17 1013.95 1013.69 1013.39 1013.10 1012.85 1012.67
1019.67 1019.85 1020.03 1020.18 1020.29 1020.35 1020.34 1020.26 1020.13 1019.96 1019.76 1019.55 1019.34 1019.11 1018.87 1018.60 1018.29 1017.92 1017.49 1017.00 1016.47 1015.92 1015.38 1014.87 1014.42 1014.07 1013.81 1013.66 1013.60 1013.63 1013.72 1013.83 1013.94 1014.01 1014.02 1013.95 1013.79 1013.56 1013.26 1012.93 1012.60 1012.30 1012.06
1019.77 1019.94 1020.09 1020.23 1020.33 1020.38 1020.37 1020.29 1020.16 1020.00 1019.81 1019.61 1019.42 1019.22 1019.00 1018.76 1018.46 1018.09 1017.64 1017.11 1016.52 1015.88 1015.24 1014.63 1014.09 1013.65 1013.31 1013.11 1013.02 1013.02 1013.10 1013.22 1013.33 1013.41 1013.43 1013.37 1013.22 1012.99 1012.69 1012.36 1012.02 1011.70 1011.45
1019.84 1019.96 1020.07 1020.17 1020.24 1020.26 1020.23 1020.14 1020.01 1019.84 1019.66 1019.47 1019.30 1019.13 1018.94 1018.73 1018.46 1018.11 1017.67 1017.13 1016.51 1015.83 1015.13 1014.44 1013.82 1013.28 1012.87 1012.58 1012.42 1012.36 1012.39 1012.47 1012.56 1012.62 1012.63 1012.58 1012.45 1012.25 1011.98 1011.69 1011.38 1011.10 1010.86
1019.82 1019.88 1019.93 1019.97 1019.99 1019.97 1019.91 1019.80 1019.65 1019.48 1019.30 1019.13 1018.97 1018.82 1018.67 1018.50 1018.27 1017.96 1017.56 1017.05 1016.44 1015.76 1015.04 1014.30 1013.62 1013.00 1012.50 1012.11 1011.85 1011.70 1011.64 1011.64 1011.67 1011.70 1011.70 1011.65 1011.55 1011.40 1011.20 1010.97 1010.74 1010.52 1010.34
1019.67 1019.66 1019.65 1019.63 1019.59 1019.53 1019.43 1019.30 1019.14 1018.96 1018.78 1018.61 1018.46 1018.34 1018.22 1018.09 1017.92 1017.67 1017.33 1016.88 1016.32 1015.67 1014.96 1014.22 1013.49 1012.81 1012.22 1011.73 1011.35 1011.09 1010.91 1010.81 1010.77 1010.74 1010.72 1010.68 1010.62 1010.54 1010.42 1010.29 1010.16 1010.03 1009.93
1019.39 1019.32 1019.25 1019.18 1019.10 1019.01 1018.89 1018.74 1018.56 1018.37 1018.19 1018.02 1017.89 1017.78 1017.68 1017.59 1017.46 1017.28 1017.01 1016.63 1016.15 1015.56 1014.89 1014.16 1013.42 1012.70 1012.03 1011.44 1010.94 1010.55 1010.26 1010.06 1009.93 1009.86 1009.81 1009.79 1009.77 1009.76 1009.73 1009.70 1009.67 1009.64 1009.62
1019.03 1018.92 1018.82 1018.72 1018.62 1018.51 1018.38 1018.23 1018.05 1017.86 1017.67 1017.50 1017.35 1017.24 1017.15 1017.07 1016.98 1016.84 1016.63 1016.33 1015.91 1015.39 1014.78 1014.08 1013.34 1012.59 1011.86 1011.19 1010.60 1010.11 1009.71 1009.42 1009.22 1009.10 1009.05 1009.04 1009.07 1009.12 1009.17 1009.23 1009.28 1009.34 1009.39
1018.67 1018.55 1018.44 1018.34 1018.25 1018.14 1018.02 1017.88 1017.70 1017.51 1017.32 1017.13 1016.96 1016.82 1016.70 1016.61 1016.51 1016.39 1016.21 1015.95 1015.59 1015.13 1014.56 1013.90 1013.18 1012.42 1011.66 1010.93 1010.27 1009.70 1009.23 1008.88 1008.64 1008.50 1008.44 1008.46 1008.52 1008.62 1008.72 1008.83 1008.94 1009.04 1009.14
1018.39 1018.29 1018.20 1018.12 1018.05 1017.97 1017.87 1017.74 1017.58 1017.39 1017.17 1016.94 1016.73 1016.53 1016.36 1016.21 1016.06 1015.91 1015.72 1015.47 1015.14 1014.71 1014.18 1013.55 1012.85 1012.10 1011.33 1010.58 1009.89 1009.29 1008.79 1008.41 1008.16 1008.02 1007.97 1008.01 1008.10 1008.21 1008.34 1008.46 1008.57 1008.67 1008.77
1018.26 1018.19 1018.14 1018.10 1018.06 1018.01 1017.94 1017.82 1017.66 1017.45 1017.20 1016.92 1016.63 1016.34 1016.08 1015.83 1015.61 1015.38 1015.14 1014.86 1014.52 1014.10 1013.58 1012.98 1012.30 1011.57 1010.82 1010.09 1009.41 1008.81 1008.32 1007.96 1007.73 1007.61 1007.59 1007.64 1007.74 1007.85 1007.95 1008.03 1008.09 1008.14 1008.19
1018.29 1018.26 1018.25 1018.24 1018.23 1018.21 1018.15 1018.04 1017.86 1017.62 1017.32 1016.96 1016.58 1016.18 1015.80 1015.43 1015.08 1014.76 1014.43 1014.09 1013.72 1013.28 1012.78 1012.19 1011.55 1010.85 1010.14 1009.45 1008.81 1008.26 1007.82 1007.50 1007.32 1007.24 1007.25 1007.31 1007.39 1007.46 1007.50 1007.50 1007.47 1007.42 1007.38
1018.47 1018.47 1018.48 1018.49 1018.49 1018.47 1018.41 1018.28 1018.07 1017.78 1017.40 1016.96 1016.47 1015.95 1015.43 1014.93 1014.46 1014.02 1013.60 1013.19 1012.77 1012.31 1011.81 1011.25 1010.64 1010.00 1009.35 1008.72 1008.15 1007.67 1007.30 1007.06 1006.93 1006.90 1006.93 1006.99 1007.04 1007.05 1007.00 1006.88 1006.72 1006.53 1006.37
1018.75 1018.76 1018.77 1018.77 1018.76 1018.71 1018.61 1018.43 1018.17 1017.81 1017.35 1016.81 1016.21 1015.58 1014.93 1014.31 1013.72 1013.18 1012.68 1012.21 1011.76 1011.29 1010.80 1010.28 1009.72 1009.14 1008.56 1008.01 1007.52 1007.12 1006.84 1006.66 1006.60 1006.61 1006.66 1006.71 1006.72 1006.65 1006.49 1006.24 1005.92 1005.59 1005.29
1019.07 1019.07 1019.05 1019.01 1018.95 1018.84 1018.68 1018.43 1018.09 1017.65 1017.10 1016.47 1015.78 1015.04 1014.31 1013.59 1012.92 1012.31 1011.77 1011.27 1010.80 1010.35 1009.90 1009.42 1008.93 1008.42 1007.92 1007.46 1007.05 1006.74 1006.52 1006.41 1006.39 1006.44 1006.50 1006.52 1006.48 1006.34 1006.07 1005.69 1005.24 1004.76 1004.33
1019.39 1019.35 1019.28 1019.18 1019.05 1018.86 1018.61 1018.28 1017.85 1017.32 1016.69 1015.98 1015.21 1014.41 1013.61 1012.85 1012.14 1011.51 1010.96 1010.47 1010.04 1009.63 1009.24 1008.83 1008.42 1007.99 1007.57 1007.18 1006.85 1006.60 1006.44 1006.38 1006.39 1006.45 1006.50 1006.51 1006.42 1006.21 1005.86 1005.38 1004.82 1004.22 1003.67
Thickness
5711 5709 5705 5702 5702 5700 5698 5694 5694 5691 5688 5687 5685 5683 5681 5679 5677 5675 5671 5664 5660 5657 5656 5654 5653 5652 5651 5651 5651 5652 5652 5653 5654 5654 5655 5655 5656 5657 5658 5659 5660 5660 5660
5706 5703 5700 5696 5695 5693 5691 5688 5686 5683 5682 5679 5677 5673 5669 5668 5665 5660 5659 5655 5649 5646 5644 5642 5641 5640 5640 5640 5640 5641 5642 5643 5644 5645 5646 5647 5648 5649 5651 5652 5653 5653 5654
5699 5697 5695 5691 5688 5685 5681 5680 5678 5675 5673 5670 5667 5663 5660 5655 5653 5649 5645 5643 5641 5636 5633 5630 5628 5628 5628 5628 5629 5630 5631 5632 5633 5635 5636 5638 5640 5641 5643 5644 5645 5646 5647
5691 5689 5687 5684 5678 5677 5675 5672 5669 5667 5664 5660 5657 5654 5650 5646 5641 5637 5633 5631 5628 5626 5622 5619 5616 5614 5614 5615 5616 5618 5619 5620 5622 5623 5626 5628 5630 5632 5634 5636 5637 5638 5640
5683 5681 5677 5671 5669 5668 5665 5661 5659 5653 5651 5646 5643 5641 5638 5635 5630 5625 5621 5617 5614 5611 5609 5606 5605 5604 5603 5603 5604 5605 5607 5608 5610 5612 5614 5617 5620 5622 5625 5628 5629 5630 5632
5673 5671 5667 5661 5660 5657 5652 5647 5642 5638 5633 5630 5628 5626 5623 5620 5616 5612 5608 5604 5600 5597 5595 5594 5593 5595 5594 5593 5592 5592 5593 5595 5597 5599 5602 5605 5608 5611 5614 5617 5620 5622 5623
5662 5659 5657 5650 5646 5643 5636 5633 5628 5626 5621 5617 5613 5613 5614 5611 5607 5599 5593 5589 5585 5582 5579 5578 5579 5581 5583 5583 5581 5581 5581 5582 5584 5586 5589 5592 5596 5599 5601 5605 5609 5612 5614
5650 5648 5642 5639 5633 5628 5624 5619 5614 5610 5608 5604 5598 5596 5599 5600 5597 5589 5579 5572 5568 5566 5564 5565 5566 5567 5568 5570 5573 5571 5571 5571 5572 5574 5577 5580 5582 5585 5589 5592 5597 5601 5604
5638 5634 5630 5625 5620 5618 5614 5606 5600 5596 5593 5588 5584 5577 5576 5579 5572 5568 5562 5555 5551 5550 5550 5552 5554 5556 5557 5559 5561 5563 5562 5562 5561 5563 5565 5568 5570 5573 5576 5580 5584 5589 5593
5627 5623 5617 5612 5607 5604 5597 5593 5589 5580 5575 5573 5569 5561 5553 5549 5544 5548 5547 5544 5542 5540 5541 5542 5545 5546 5548 5549 5552 5551 5551 5550 5550 5551 5553 5556 5558 5561 5563 5567 5571 5576 5580
5614 5609 5603 5598 5592 5589 5582 5574 5569 5564 5560 5556 5551 5546 5540 5534 5531 5531 5533 5532 5532 5533 5534 5535 5536 5537 5538 5539 5541 5543 5542 5540 5538 5539 5541 5543 5546 5548 5551 5554 5559 5564 5569
5604 5596 5590 5584 5579 5573 5566 5560 5553 5550 5543 5537 5531 5529 5526 5523 5520 5519 5520 5521 5523 5526 5525 5525 5526 5528 5529 5530 5531 5531 5529 5526 5526 5526 5528 5530 5532 5535 5538 5542 5546 5552 5558
5593 5583 5577 5570 5565 5558 5551 5545 5539 5534 5529 5522 5517 5515 5512 5508 5507 5505 5506 5509 5510 5513 5514 5514 5517 5518 5517 5517 5517 5516 5514 5513 5513 5513 5514 5516 5518 5521 5525 5529 5534 5539 5546
5579 5569 5562 5556 5550 5544 5539 5532 5527 5522 5516 5509 5505 5500 5497 5495 5493 5491 5491 5492 5496 5500 5501 5501 5501 5500 5500 5500 5500 5497 5499 5500 5500 5500 5501 5502 5504 5508 5512 5516 5521 5527 5533
5564 5557 5550 5544 5538 5532 5525 5519 5516 5509 5504 5499 5495 5491 5487 5484 5480 5477 5474 5473 5474 5479 5485 5485 5483 5482 5481 5481 5481 5482 5484 5486 5487 5487 5488 5490 5492 5495 5499 5504 5510 5516 5522
5550 5544 5538 5532 5526 5520 5515 5509 5504 5500 5493 5488 5484 5479 5475 5471 5467 5462 5459 5457 5456 5455 5459 5461 5461 5463 5462 5462 5464 5466 5469 5471 5473 5475 5477 5479 5481 5484 5489 5494 5500 5506 5512
5538 5532 5527 5522 5516 5511 5505 5499 5494 5488 5483 5479 5473 5469 5465 5458 5453 5448 5443 5441 5440 5439 5440 5444 5442 5445 5446 5448 5450 5452 5457 5461 5466 5468 5469 5470 5472 5476 5480 5485 5492 5498 5504
5528 5523 5517 5512 5507 5502 5496 5490 5485 5479 5474 5469 5463 5458 5452 5445 5439 5433 5429 5427 5426 5422 5421 5425 5428 5431 5435 5437 5439 5443 5448 5453 5456 5460 5461 5463 5465 5469 5474 5479 5485 5491 5496
5519 5513 5508 5503 5498 5493 5487 5481 5475 5469 5462 5456 5450 5443 5437 5430 5424 5420 5416 5414 5412 5411 5411 5413 5418 5420 5425 5429 5432 5437 5441 5444 5448 5452 5455 5457 5460 5464 5468 5474 5479 5485 5490
5511 5505 5500 5495 5489 5484 5477 5470 5462 5455 5449 5442 5435 5428 5422 5417 5413 5409 5406 5404 5403 5403 5404 5406 5410 5415 5420 5424 5427 5432 5436 5438 5441 5445 5449 5453 5456 5459 5463 5468 5474 5479 5483
5502 5497 5490 5484 5477 5471 5462 5449 5442 5439 5434 5429 5423 5417 5412 5407 5404 5401 5399 5399 5398 5398 5400 5402 5406 5412 5417 5421 5425 5427 5429 5432 5436 5441 5446 5450 5454 5458 5462 5466 5469 5473 5477
5490 5483 5476 5468 5462 5455 5438 5427 5420 5420 5419 5416 5412 5407 5403 5401 5400 5397 5395 5394 5394 5396 5399 5401 5405 5410 5416 5420 5422 5423 5424 5427 5434 5441 5443 5448 5451 5456 5460 5463 5467 5468 5471
5475 5468 5460 5453 5446 5437 5423 5413 5407 5404 5406 5404 5401 5399 5397 5396 5393 5394 5393 5392 5394 5396 5398 5400 5405 5410 5415 5418 5420 5423 5426 5429 5435 5438 5439 5446 5450 5453 5456 5459 5459 5461 5465
5461 5454 5446 5438 5430 5423 5411 5402 5396 5396 5397 5395 5393 5392 5392 5391 5390 5389 5390 5392 5396 5400 5403 5405 5408 5412 5415 5419 5422 5426 5430 5432 5434 5436 5437 5443 5449 5450 5452 5453 5454 5457 5461
5447 5440 5434 5426 5418 5411 5401 5394 5388 5389 5389 5388 5387 5388 5387 5388 5387 5386 5388 5394 5400 5406 5409 5409 5412 5415 5419 5424 5429 5432 5434 5435 5438 5438 5437 5439 5443 5444 5446 5448 5450 5454 5461
5434 5429 5422 5415 5408 5402 5395 5388 5382 5384 5383 5382 5382 5384 5385 5385 5386 5387 5391 5397 5403 5409 5411 5414 5416 5419 5423 5428 5433 5435 5437 5438 5440 5440 5437 5437 5439 5438 5442 5444 5445 5450 5460